This is the latest recevied weather packets stored in our database for station/object R2AKT-13. If no packets are shown the sender has not sent any weather packets the latest 10 day(s).
| Time | Temp. | Humidity | Pressure | Rain* | Wind** | Luminosity | Snow |
|---|---|---|---|---|---|---|---|
| 1787967521 | 12.78° C | 72% | 1002.1 hPa | - | 0.89 m/s, 163° | - | - |
| 1787966921 | 12.78° C | 72% | 1002 hPa | - | 1.34 m/s, 152° | - | - |
| 1787966436 | 12.78° C | 72% | 1002.2 hPa | - | 0.89 m/s, 142° | - | - |
| 1787965936 | 12.78° C | 72% | 1002.2 hPa | - | 0.89 m/s, 141° | - | - |
| 1787965386 | 12.78° C | 71% | 1002.2 hPa | - | 0.45 m/s, 208° | - | - |
| 1787964801 | 12.78° C | 72% | 1002.2 hPa | - | 0.89 m/s, 171° | - | - |
| 1787964211 | 13.33° C | 71% | 1002.3 hPa | - | 0.45 m/s, 146° | - | - |
| 1787963660 | 12.78° C | 72% | 1002.3 hPa | - | 0.89 m/s, 173° | - | - |
| 1787963096 | 12.78° C | 72% | 1002.3 hPa | - | 0.89 m/s, 184° | - | - |
| 1787962576 | 12.78° C | 72% | 1002.3 hPa | - | 0.45 m/s, 176° | - | - |
| 1787962036 | 12.78° C | 71% | 1002.4 hPa | - | 0.89 m/s, 156° | - | - |
| 1787961496 | 12.78° C | 71% | 1002.3 hPa | - | 1.34 m/s, 157° | - | - |
| 1787960961 | 12.78° C | 71% | 1002.4 hPa | - | 0.89 m/s, 155° | - | - |
| 1787960431 | 12.78° C | 70% | 1002.4 hPa | - | 1.34 m/s, 149° | - | - |
| 1787959886 | 13.33° C | 69% | 1002.5 hPa | - | 0.45 m/s, 174° | - | - |
| 1787959386 | 13.33° C | 70% | 1002.5 hPa | - | 0.89 m/s, 150° | - | - |
| 1787958891 | 13.33° C | 70% | 1002.4 hPa | - | 0.89 m/s, 166° | - | - |
| 1787958386 | 13.33° C | 70% | 1002.4 hPa | - | 1.34 m/s, 158° | - | - |
| 1787957856 | 13.33° C | 70% | 1002.4 hPa | - | 1.34 m/s, 170° | - | - |
| 1787957331 | 13.33° C | 70% | 1002.4 hPa | - | 1.34 m/s, 155° | - | - |
| 1787956831 | 13.33° C | 70% | 1002.3 hPa | - | 1.34 m/s, 159° | - | - |
| 1787956266 | 13.33° C | 70% | 1002.3 hPa | - | 0.45 m/s, 167° | - | - |
| 1787955706 | 13.33° C | 69% | 1002.4 hPa | - | 1.34 m/s, 163° | - | - |
| 1787955216 | 13.33° C | 69% | 1002.5 hPa | - | 1.34 m/s, 168° | - | - |
| 1787954716 | 13.33° C | 71% | 1002.5 hPa | - | 1.79 m/s, 161° | - | - |
* Rain since midnight (hover to see other rain measurements)
** Current wind speed in m/s (hover to see current wind gust speed)